Find Starlink 31989

NORAD ID: 59959 Int'l Des: 2024-107 Owner: SPXS Country: US Constellation: starlink operational
LEOCIRCULAR

現在のビュー

3D地球を読み込み中...

Starlink 31989について

説明を読み込み中...

次回通過

Passes for default location (London). Set your location on the main map for personalized predictions.

高度履歴

Loading altitude history...

軌道要素

1 59959U 24107Q 26159.12046606 .00100835 00000-0 32910-2 0 9993
2 59959 53.1615 5.3623 0001448 136.9187 223.1928 15.30973730113641
Epoch: Jun 8, 2026 • Age: 15 hours

現在のステータス

高度 475.5 km
速度 7.63 km/s
衛星直下点 -12.97°S, 27.55°E
打ち上げ日 Jun 5, 2024
運用期間 2 years
タイプ internet

技術仕様

分類 Payload
質量 730.00 kg
乾燥質量 700.00 kg
総質量 730.00 kg
長さ 0.30 m
直径 4.10 m
スパン 29.00 m
形状 Box + pan
製造者 SPXS
バスタイプ Starlink V2M
フェーズステータス In Orbit
所有者/国 SPXS/US

Most Searched